TimeCDT,TemperatureF,Dew PointF,Humidity,Sea Level PressureIn,VisibilityMPH,Wind Direction,Wind SpeedMPH,Gust SpeedMPH,PrecipitationIn,Events,Conditions,WindDirDegrees,DateUTC
12:53 AM,32.0,27.0,82,30.30,10.0,ESE,6.9,-,N/A,,Clear,120,2012-10-30 05:53:00
1:53 AM,30.9,26.1,82,30.31,10.0,ESE,5.8,-,N/A,,Clear,110,2012-10-30 06:53:00
2:53 AM,32.0,26.1,79,30.30,10.0,ESE,3.5,-,N/A,,Partly Cloudy,120,2012-10-30 07:53:00
3:53 AM,33.1,27.0,78,30.29,10.0,ESE,6.9,-,N/A,,Clear,120,2012-10-30 08:53:00
4:53 AM,32.0,27.0,82,30.29,10.0,ESE,6.9,-,N/A,,Clear,120,2012-10-30 09:53:00
5:53 AM,30.2,26.6,86,30.25,10.0,ESE,6.9,-,N/A,,Clear,120,2012-10-30 10:53:00
6:53 AM,30.0,25.0,82,30.30,10.0,SE,4.6,-,N/A,,Clear,140,2012-10-30 11:53:00
7:53 AM,30.0,26.1,85,30.30,10.0,ESE,6.9,-,N/A,,Overcast,120,2012-10-30 12:53:00
8:53 AM,30.9,26.1,82,30.29,10.0,ESE,8.1,-,N/A,,Overcast,120,2012-10-30 13:53:00
9:53 AM,34.0,28.0,79,30.30,10.0,ESE,6.9,-,N/A,,Overcast,120,2012-10-30 14:53:00
10:53 AM,37.0,28.9,73,30.29,10.0,SE,8.1,-,N/A,,Clear,130,2012-10-30 15:53:00
11:53 AM,41.0,28.0,60,30.28,10.0,ESE,10.4,-,N/A,,Clear,110,2012-10-30 16:53:00
12:53 PM,44.1,28.0,53,30.26,10.0,ESE,13.8,-,N/A,,Clear,110,2012-10-30 17:53:00
1:53 PM,44.1,28.0,53,30.25,10.0,ESE,9.2,-,N/A,,Clear,120,2012-10-30 18:53:00
2:53 PM,45.0,28.9,53,30.22,10.0,East,10.4,-,N/A,,Clear,100,2012-10-30 19:53:00
3:53 PM,45.0,28.9,53,30.22,10.0,East,10.4,-,N/A,,Clear,90,2012-10-30 20:53:00
4:53 PM,44.1,28.9,55,30.21,10.0,ESE,6.9,-,N/A,,Clear,110,2012-10-30 21:53:00
5:53 PM,37.9,28.0,68,30.21,10.0,East,5.8,-,N/A,,Clear,80,2012-10-30 22:53:00
6:53 PM,36.0,27.0,70,30.21,10.0,ENE,4.6,-,N/A,,Clear,70,2012-10-30 23:53:00
7:53 PM,32.0,25.0,75,30.20,10.0,East,3.5,-,N/A,,Clear,100,2012-10-31 00:53:00
8:53 PM,30.9,23.0,72,30.18,10.0,East,4.6,-,N/A,,Clear,100,2012-10-31 01:53:00
9:53 PM,30.0,21.9,72,30.17,10.0,East,6.9,-,N/A,,Clear,90,2012-10-31 02:53:00
10:53 PM,28.9,21.9,75,30.18,10.0,East,8.1,-,N/A,,Clear,100,2012-10-31 03:53:00
11:53 PM,27.0,21.0,78,30.17,10.0,East,6.9,-,N/A,,Clear,100,2012-10-31 04:53:00